Location: Valasske Mezirici
(49.4670°N, 17.9670°E)
Time: 01:16:06
(UTC+02:00)

ISS - Visible Passes

Search period start: 06 May 2021 00:00
Search period end: 16 May 2021 00:00
Orbit: 418 x 421 km, 51.6° (Epoch: 05 May)

Date Brightness Start Highest point End Pass type
(mag) Time Alt. Az. Time Alt. Az. Time Alt. Az.
06 May -3.9 02:48:19 69° SSW 02:48:37 77° SSE 02:52:00 10° ENE visible
06 May -3.2 04:22:13 10° W 04:25:33 57° N 04:28:54 10° ENE visible
07 May -2.5 02:02:24 34° E 02:02:24 34° E 02:04:33 10° ENE visible
07 May -3.3 03:35:20 15° W 03:38:04 61° N 03:41:26 10° ENE visible
08 May -1.2 01:16:27 14° E 01:16:27 14° E 01:17:03 10° E visible
08 May -3.5 02:49:24 36° W 02:50:36 69° N 02:53:58 10° ENE visible
08 May -3.2 04:24:16 10° WNW 04:27:38 62° N 04:31:00 10° E visible
09 May -3.6 02:03:25 72° NE 02:03:25 72° NE 02:06:32 10° ENE visible
09 May -3.1 03:36:47 10° WNW 03:40:08 57° N 03:43:29 10° E visible
10 May -2.0 01:17:25 26° ENE 01:17:25 26° ENE 01:19:04 10° ENE visible
10 May -3.2 02:50:21 18° WNW 02:52:38 57° N 02:55:59 10° ENE visible
10 May -3.7 04:26:14 10° WNW 04:29:37 88° NNE 04:33:01 10° ESE visible
11 May -1.0 00:31:23 11° ENE 00:31:23 11° ENE 00:31:37 10° ENE visible
11 May -3.3 02:04:19 44° WNW 02:05:08 60° N 02:08:30 10° ENE visible
11 May -3.5 03:38:46 10° WNW 03:42:10 72° NNE 03:45:32 10° E visible
12 May -3.1 01:18:14 53° NE 01:18:14 53° NE 01:21:01 10° ENE visible
12 May -3.3 02:51:19 10° WNW 02:54:40 62° N 02:58:02 10° E visible
12 May -3.5 04:28:11 10° WNW 04:31:29 51° SSW 04:34:47 10° SE visible
13 May -1.9 00:32:03 24° ENE 00:32:03 24° ENE 00:33:34 10° ENE visible
13 May -3.2 02:04:58 19° WNW 02:07:10 57° N 02:10:31 10° E visible
13 May -3.8 03:40:42 10° WNW 03:44:04 71° SSW 03:47:27 10° ESE visible
13 May -1.2 23:45:40 13° ENE 23:45:40 13° ENE 23:46:05 10° ENE visible
14 May -3.2 01:18:33 36° WNW 01:19:39 57° N 01:23:00 10° ENE visible
14 May -3.8 02:53:14 10° WNW 02:56:38 88° NNE 03:00:01 10° ESE visible
14 May -1.9 21:17:33 10° SSE 21:19:03 12° SE 21:20:33 10° ESE visible
14 May -3.8 22:51:59 10° SW 22:55:17 56° SSE 22:58:37 10° ENE visible
15 May -3.3 00:28:47 10° W 00:32:09 60° N 00:35:29 10° ENE visible
15 May -3.6 02:05:47 10° WNW 02:09:10 72° NNE 02:12:33 10° E visible
15 May -3.2 03:42:43 10° W 03:45:51 35° SSW 03:48:57 10° SE visible
15 May -3.3 22:04:44 10° SW 22:07:55 39° SSE 22:11:05 10° E visible
15 May -3.5 23:41:16 10° W 23:44:38 68° NNW 23:48:00 10° ENE visible
